Location: Unspecified
(0.0000°N, 0.0000°E)
Time: 05:50:11
(UTC+00:00)

Vanguard 2 Rocket - Pass Details

Date: 10 October 2023
Orbit: 552 x 3312 km, 32.9° (Epoch: 06 December)

Event Time Altitude Azimuth Distance (km) Brightness Sun altitude
Rises 17:19:36 0° 288° (WNW) 7,245 12.9 6.8°
Reaches altitude 10° 17:25:16 10° 282° (WNW) 6,063 12.8 5.4°
Maximum altitude 17:41:27 40° 219° (SW) 3,236 10.3 1.4°
Drops below altitude 10° 17:52:03 10° 153° (SSE) 4,000 10.0 -1.2°
Sets 17:54:59 0° 144° (SE) 4,651 10.2 -2.0°
